[[{"header":{"parameterUnit":"m.s-1","parameterCategory":1,"la1":30.2991,"la2":30.254,"lo1":-89.0895,"lo2":-89.0444,"dy":0.0017,"dx":0.0017,"nx":28,"ny":28,"refTime":"2023-09-24T09:00:00:Z","depth":0,"parameterNumber":2,"parameterNumberName":"U-component_of_WINDS"},"data":[0,0,0,0,0,0,0,0,0,0,0,0,0,0,0,0,0,0,0,0,0,0,0,0,0,0,0,0,0,0,0,0,0,0,0,0,0,0,0,0,0,0,0,0,0,0,0,0,0,0,0,0,0,0,0,0,0,0,1.5092,1.5091,0,1.4967,1.4965,1.4964,1.4984,1.4986,1.4989,1.4991,1.4848,1.4842,1.4836,0,0,0,0,0,0,0,0,0,0,0,0,0,1.5336,1.5332,1.5092,1.509,1.5089,1.4967,1.4965,1.4963,1.4984,1.4986,1.4989,1.4992,1.485,1.4843,1.4836,0,0,0,0,0,0,0,0,0,0,0,0,0,1.5222,1.533,1.5092,1.5085,1.5083,1.4967,1.4965,1.4963,1.4983,1.4987,1.499,1.4993,1.4852,1.4844,1.4835,1.4715,0,0,1.4808,1.4804,0,0,0,0,0,0,0,0,1.5228,1.5213,1.5087,1.5085,1.5083,1.4995,1.4999,1.4879,1.4982,1.502,1.4991,1.4995,1.4893,1.4881,1.485,1.4708,1.4702,1.4807,1.4802,1.4798,1.4796,0,0,0,0,0,0,0,1.5236,1.5218,1.5042,1.5085,1.5083,1.5083,1.5071,1.4976,1.4939,1.5017,1.5019,1.5004,1.4892,1.4858,1.4847,1.47,1.4808,1.48,1.4794,1.4791,1.4452,1.4449,0,0,0,0,0,0,1.5248,1.5225,1.5046,1.5038,1.5166,1.5076,1.5062,1.5019,1.4941,1.4932,1.5002,1.5006,1.4872,1.4857,1.4842,1.4695,1.4798,1.479,1.4785,1.4456,1.4451,1.4447,0,0,0,0,0,0,1.5254,1.5232,1.5051,1.5132,1.5109,1.5069,1.502,1.5015,1.4981,1.4929,1.4921,1.4975,1.4874,1.4854,1.4747,1.469,1.4786,1.4778,1.446,1.4454,1.4449,1.44,0,0,0,0,0,0,1.5261,1.5234,1.5191,1.5131,1.5105,1.4962,1.5017,1.501,1.4968,1.4972,1.4901,1.4893,1.4875,1.476,1.4738,1.468,1.4771,1.4465,1.4458,1.4451,1.4406,1.4393,1.4382,0,0,0,0,0,1.5269,1.5178,1.5188,1.5166,1.505,1.4958,1.4943,1.4928,1.4963,1.4917,1.4884,1.4895,1.4701,1.4749,1.4725,1.4662,1.4468,1.446,1.4452,1.4412,1.4396,1.4383,0,0,0,0,0,0,1.5226,1.517,1.518,1.5069,1.5019,1.4962,1.4903,1.4912,1.4847,1.4853,1.4834,1.4818,1.4709,1.4675,1.473,1.4542,1.4589,1.4575,1.4567,1.4552,1.454,1.4548,1.4764,0,0,0,0,0,1.5205,1.514,1.5093,1.4998,1.4974,1.4943,1.4902,1.4897,1.4842,1.4819,1.4778,1.472,1.4647,1.4598,1.4527,1.4404,1.4386,1.4349,1.4337,1.4327,1.4314,1.4244,1.4226,1.442,1.442,1.442,0,0,1.5158,1.5119,1.5078,1.4989,1.495,1.4878,1.4925,1.4847,1.4792,1.4806,1.4703,1.4671,1.4605,1.449,1.4436,1.4458,1.4258,1.4316,1.4309,1.4301,1.4234,1.4215,1.4199,1.4414,1.4415,1.4416,0,0,1.5035,1.5001,1.4919,1.488,1.4822,1.4803,1.4783,1.4726,1.4707,1.4605,1.4613,1.4547,1.4421,1.4374,1.4333,1.4197,1.4203,1.4174,1.4109,1.4041,1.4026,1.4012,1.3961,1.3943,1.4162,1.4162,1.4162,0,1.4982,1.4879,1.4874,1.4796,1.4755,1.4771,1.4685,1.4646,1.4565,1.4535,1.4563,1.4406,1.4363,1.4236,1.4203,1.4171,1.4144,1.4179,1.403,1.4016,1.4003,1.3953,1.3934,1.4159,1.4159,1.4159,1.416,0,1.4816,1.4744,1.4684,1.4612,1.4565,1.4483,1.4462,1.4414,1.4414,1.4391,1.4285,1.4236,1.4155,1.4125,1.4121,1.3997,1.4012,1.4035,1.4081,1.3981,1.3934,1.3915,1.4154,1.4155,1.4156,1.4157,0,0,1.4657,1.4587,1.4565,1.4532,1.4471,1.4413,1.4332,1.4259,1.4217,1.4162,1.409,1.3985,1.4007,1.3961,1.3952,1.3894,1.3786,1.3923,1.3922,1.3897,1.3643,1.3623,1.3601,1.3793,1.3789,1.3786,1.3647,0,1.4526,1.4387,1.4381,1.4252,1.4185,1.4201,1.4129,1.4082,1.4059,1.3995,1.3968,1.3893,1.3929,1.3902,1.3845,1.3811,1.3734,1.3822,1.3721,1.3717,1.3733,1.3577,1.3556,1.3426,1.3629,1.3626,1.3624,0,1.4353,1.4299,1.4165,1.4115,1.4086,1.4022,1.3955,1.3895,1.3841,1.3829,1.378,1.3781,1.3693,1.3747,1.3624,1.3684,1.3643,1.3621,1.3615,1.3601,1.3661,1.3555,1.3385,1.3364,1.3595,1.3597,1.36,0,1.4247,1.414,1.4046,1.4018,1.3958,1.3913,1.3885,1.3835,1.3791,1.3731,1.3702,1.3631,1.3591,1.3534,1.3514,1.3556,1.3392,1.3444,1.3374,1.3375,1.3334,1.3336,1.3151,1.3315,1.3316,1.3316,1.3316,0,1.4099,1.4015,1.3998,1.3939,1.3845,1.3839,1.3745,1.3719,1.3676,1.3609,1.3619,1.3555,1.3536,1.3468,1.3452,1.3351,1.3334,1.3318,1.3313,1.3314,1.3316,1.3283,1.329,1.3311,1.3312,1.3313,1.3314,0,1.3962,1.3948,1.3846,1.38,1.3786,1.3719,1.3677,1.3619,1.36,1.3516,1.3496,1.3464,1.3385,1.3362,1.3265,1.3255,1.3135,1.3141,1.3155,1.3153,1.3083,1.3089,1.2867,1.2836,1.3025,1.3023,1.3022,0,1.3866,1.3803,1.3752,1.3711,1.3683,1.3616,1.3573,1.3565,1.3519,1.3455,1.3403,1.3328,1.3265,1.3138,1.3103,1.3029,1.3031,1.2959,1.3019,1.3022,1.3025,1.3027,1.3019,1.2945,1.2943,1.2942,1.294,0,1.3696,1.3693,1.3634,1.3572,1.3522,1.3472,1.3423,1.3388,1.3373,1.332,1.3243,1.3195,1.31,1.3023,1.2949,1.2915,1.2923,1.2923,1.2902,1.2899,1.2908,1.2899,1.3119,1.2926,1.2928,1.2929,1.2929,1.293,1.3573,1.3518,1.3475,1.3408,1.3372,1.3327,1.3271,1.3248,1.3184,1.3109,1.3108,1.3023,1.297,1.2873,1.2836,1.2767,1.2787,1.2758,1.2749,1.2741,1.2734,1.2925,1.2753,1.2754,1.2754,1.2754,1.2755,0,1.3401,1.3375,1.3315,1.3249,1.3196,1.3217,1.3165,1.3117,1.3044,1.2997,1.2938,1.2848,1.2774,1.2736,1.2661,1.2613,1.2614,1.2593,1.2593,1.2585,1.2721,1.2745,1.2593,1.2593,1.2593,1.2593,1.2593,1.2593,1.3304,1.3212,1.3204,1.3092,1.3066,1.2987,1.2955,1.2912,1.2875,1.2777,1.2717,1.2695,1.265,1.2573,1.2505,1.2496,1.2465,1.2441,1.2433,1.2559,1.2576,1.2591,1.2613,1.2436,1.2435,1.2302,1.23,1.2299]},{"header":{"parameterUnit":"m.s-1","parameterCategory":1,"la1":30.2991,"la2":30.254,"lo1":-89.0895,"lo2":-89.0444,"dy":0.0017,"dx":0.0017,"nx":28,"ny":28,"refTime":"2023-09-24T09:00:00:Z","depth":0,"parameterNumber":3,"parameterNumberName":"V-component_of_WINDS"},"data":[0,0,0,0,0,0,0,0,0,0,0,0,0,0,0,0,0,0,0,0,0,0,0,0,0,0,0,0,0,0,0,0,0,0,0,0,0,0,0,0,0,0,0,0,0,0,0,0,0,0,0,0,0,0,0,0,0,0,-0.5001,-0.4996,0,-0.4556,-0.4551,-0.4546,-0.4397,-0.4399,-0.4401,-0.4403,-0.3936,-0.3923,-0.3909,0,0,0,0,0,0,0,0,0,0,0,0,0,-0.5713,-0.5701,-0.5001,-0.4996,-0.499,-0.4557,-0.455,-0.4544,-0.4397,-0.4399,-0.4401,-0.4403,-0.3941,-0.3924,-0.3907,0,0,0,0,0,0,0,0,0,0,0,0,0,-0.535,-0.5697,-0.5002,-0.4864,-0.4848,-0.4558,-0.455,-0.4543,-0.4396,-0.4399,-0.4402,-0.4404,-0.3947,-0.3926,-0.3905,-0.3717,0,0,-0.384,-0.3831,0,0,0,0,0,0,0,0,-0.5371,-0.5324,-0.489,-0.4873,-0.4854,-0.4535,-0.463,-0.4265,-0.4395,-0.4567,-0.4403,-0.4406,-0.4133,-0.4096,-0.4006,-0.3695,-0.3675,-0.3838,-0.3825,-0.3816,-0.381,0,0,0,0,0,0,0,-0.5396,-0.5342,-0.4824,-0.4884,-0.4862,-0.4821,-0.4773,-0.4561,-0.4339,-0.4552,-0.4541,-0.4491,-0.4123,-0.4027,-0.3994,-0.3668,-0.3839,-0.382,-0.3807,-0.3798,-0.3177,-0.3173,0,0,0,0,0,0,-0.5446,-0.5364,-0.4839,-0.4811,-0.5125,-0.4806,-0.4752,-0.4634,-0.4341,-0.4299,-0.4489,-0.4485,-0.4062,-0.4019,-0.3977,-0.3734,-0.3816,-0.3796,-0.3784,-0.318,-0.3176,-0.3172,0,0,0,0,0,0,-0.5462,-0.54,-0.4857,-0.5084,-0.5012,-0.4791,-0.466,-0.4624,-0.4528,-0.4293,-0.4252,-0.4432,-0.4062,-0.4007,-0.3782,-0.3716,-0.3787,-0.3767,-0.3185,-0.3179,-0.3174,-0.3249,0,0,0,0,0,0,-0.5483,-0.5407,-0.5335,-0.5084,-0.5001,-0.4672,-0.4656,-0.4613,-0.4493,-0.4484,-0.4228,-0.4189,-0.406,-0.3815,-0.3761,-0.3688,-0.3751,-0.319,-0.3182,-0.3176,-0.3251,-0.3247,-0.3243,0,0,0,0,0,-0.5509,-0.5372,-0.5332,-0.527,-0.4907,-0.4669,-0.4621,-0.4479,-0.4488,-0.4412,-0.4261,-0.4197,-0.3734,-0.3793,-0.3732,-0.3651,-0.3193,-0.3184,-0.3176,-0.3253,-0.3248,-0.3243,0,0,0,0,0,0,-0.5617,-0.5337,-0.5289,-0.5068,-0.4894,-0.4645,-0.4544,-0.4478,-0.4295,-0.4294,-0.4123,-0.4066,-0.3854,-0.373,-0.3802,-0.3452,-0.346,-0.3439,-0.3539,-0.3532,-0.3528,-0.3559,-0.3733,0,0,0,0,0,-0.5617,-0.5451,-0.5213,-0.5041,-0.4956,-0.4767,-0.4657,-0.4564,-0.4375,-0.4299,-0.4132,-0.3948,-0.3761,-0.364,-0.3455,-0.3235,-0.3174,-0.3149,-0.3145,-0.3142,-0.3124,-0.2995,-0.2979,-0.3144,-0.3144,-0.3144,0,0,-0.5611,-0.5438,-0.5342,-0.5058,-0.4912,-0.474,-0.4705,-0.4524,-0.4394,-0.427,-0.4048,-0.392,-0.3703,-0.348,-0.3372,-0.3369,-0.3066,-0.3132,-0.3131,-0.3113,-0.2985,-0.2969,-0.2955,-0.3138,-0.3139,-0.314,0,0,-0.5513,-0.5367,-0.5206,-0.5061,-0.4842,-0.4717,-0.4679,-0.4439,-0.435,-0.4125,-0.4028,-0.387,-0.3552,-0.3401,-0.3282,-0.313,-0.3061,-0.3074,-0.3049,-0.2925,-0.2912,-0.29,-0.284,-0.2822,-0.3058,-0.3058,-0.3058,0,-0.5532,-0.5272,-0.5131,-0.4955,-0.4831,-0.4717,-0.455,-0.4416,-0.4146,-0.4062,-0.4065,-0.3663,-0.3509,-0.3247,-0.321,-0.312,-0.3067,-0.3099,-0.2926,-0.2912,-0.2898,-0.284,-0.2819,-0.3061,-0.3061,-0.306,-0.306,0,-0.5305,-0.5126,-0.5022,-0.4768,-0.4633,-0.4463,-0.4293,-0.4173,-0.4093,-0.3967,-0.3738,-0.3551,-0.3324,-0.3257,-0.3175,-0.2982,-0.2987,-0.2961,-0.2963,-0.2888,-0.2829,-0.2806,-0.3065,-0.3064,-0.3063,-0.3062,0,0,-0.5257,-0.493,-0.4893,-0.4775,-0.4526,-0.4383,-0.4208,-0.3991,-0.3889,-0.3708,-0.3553,-0.3289,-0.3263,-0.3129,-0.3029,-0.2922,-0.2808,-0.2907,-0.2899,-0.2891,-0.2579,-0.2596,-0.2573,-0.2764,-0.276,-0.2756,-0.2595,0,-0.5122,-0.4805,-0.4674,-0.4417,-0.4247,-0.4138,-0.3984,-0.3814,-0.3692,-0.3528,-0.3393,-0.3206,-0.3189,-0.3106,-0.2996,-0.2845,-0.2742,-0.2856,-0.2613,-0.2606,-0.2665,-0.2543,-0.256,-0.2418,-0.2572,-0.2568,-0.2565,0,-0.492,-0.4741,-0.4469,-0.4239,-0.4163,-0.4028,-0.3817,-0.3664,-0.3467,-0.3386,-0.3239,-0.3146,-0.2954,-0.2976,-0.2706,-0.2787,-0.2681,-0.2593,-0.2583,-0.255,-0.2577,-0.2501,-0.2369,-0.2346,-0.2529,-0.2532,-0.2535,0,-0.4906,-0.4597,-0.4393,-0.4297,-0.4026,-0.3933,-0.3815,-0.3622,-0.3499,-0.3315,-0.3233,-0.3029,-0.2915,-0.2757,-0.261,-0.264,-0.2353,-0.2364,-0.2276,-0.228,-0.2215,-0.222,-0.2059,-0.2158,-0.2158,-0.2158,-0.2159,0,-0.4765,-0.4601,-0.4383,-0.4257,-0.4069,-0.392,-0.3737,-0.3612,-0.3441,-0.3286,-0.318,-0.3036,-0.2854,-0.2686,-0.257,-0.2363,-0.2314,-0.2239,-0.2209,-0.2245,-0.2254,-0.2168,-0.2172,-0.2152,-0.2154,-0.2155,-0.2156,0,-0.4715,-0.4563,-0.4333,-0.4097,-0.4034,-0.3906,-0.3702,-0.3573,-0.345,-0.3254,-0.32,-0.3003,-0.28,-0.264,-0.2375,-0.2297,-0.2077,-0.2046,-0.2143,-0.2127,-0.2046,-0.2054,-0.1819,-0.1779,-0.1912,-0.1911,-0.191,0,-0.4632,-0.4504,-0.4256,-0.4146,-0.403,-0.3855,-0.373,-0.3578,-0.3452,-0.322,-0.3118,-0.291,-0.2733,-0.2414,-0.2244,-0.2041,-0.2001,-0.1933,-0.1969,-0.2009,-0.1993,-0.2,-0.1984,-0.1927,-0.1926,-0.1926,-0.1925,0,-0.4499,-0.4431,-0.4257,-0.4057,-0.3912,-0.3746,-0.3577,-0.3493,-0.331,-0.3173,-0.2966,-0.2831,-0.2562,-0.2353,-0.2133,-0.2007,-0.1933,-0.1917,-0.1884,-0.1916,-0.1976,-0.1937,-0.2126,-0.1921,-0.1921,-0.1921,-0.1922,-0.1922,-0.4425,-0.4305,-0.4112,-0.3921,-0.378,-0.3625,-0.3493,-0.3354,-0.3179,-0.295,-0.2872,-0.2658,-0.2463,-0.216,-0.2034,-0.1862,-0.1857,-0.1812,-0.1799,-0.1789,-0.179,-0.201,-0.1822,-0.1822,-0.1822,-0.1822,-0.1822,0,-0.4282,-0.4154,-0.398,-0.3749,-0.3599,-0.355,-0.3361,-0.3236,-0.3051,-0.2878,-0.2708,-0.2469,-0.2267,-0.2085,-0.1873,-0.1771,-0.1732,-0.172,-0.1722,-0.1694,-0.1809,-0.1856,-0.1755,-0.1755,-0.1755,-0.1755,-0.1755,-0.1755,-0.419,-0.3983,-0.3892,-0.3614,-0.3485,-0.3277,-0.3173,-0.3028,-0.2889,-0.2629,-0.2462,-0.2346,-0.2167,-0.1943,-0.1755,-0.1706,-0.163,-0.1626,-0.1568,-0.1678,-0.1686,-0.1694,-0.1737,-0.1613,-0.1613,-0.1466,-0.1465,-0.1464]}]]